| time (UTC) | temp C | wind direction | speed KPH | gust KPH | rain 1hr cm | rain 24hr cm | rain mn cm | humidity % | barometer mb |
| 20260506015916 | 10 | 120 | 1.6 | 11.3 | 0.00 | 0.00 | 0.00 | 83 | 1013.1 |
| 20260506015414 | 10 | 66 | 3.2 | 6.4 | 0.00 | 0.00 | 0.00 | 82 | 1013.2 |
| 20260506014910 | 10 | 23 | 3.2 | 9.7 | 0.00 | 0.00 | 0.00 | 82 | 1013.0 |
| 20260506014407 | 10 | 47 | 3.2 | 6.4 | 0.00 | 0.00 | 0.00 | 82 | 1012.9 |
| 20260506013904 | 10 | 26 | 1.6 | 9.7 | 0.00 | 0.00 | 0.00 | 82 | 1012.8 |
| 20260506013402 | 10 | 350 | 3.2 | 9.7 | 0.00 | 0.00 | 0.00 | 81 | 1012.7 |
| 20260506012858 | 10 | 96 | 1.6 | 6.4 | 0.00 | 0.00 | 0.00 | 81 | 1012.9 |
| 20260506012355 | 10 | 65 | 3.2 | 9.7 | 0.00 | 0.00 | 0.00 | 81 | 1012.7 |
| 20260506011852 | 10 | 38 | 3.2 | 11.3 | 0.00 | 0.00 | 0.00 | 81 | 1012.8 |
| 20260506011349 | 10 | 30 | 3.2 | 14.5 | 0.00 | 0.00 | 0.00 | 81 | 1012.6 |
| 20260506010846 | 10 | 348 | 1.6 | 3.2 | 0.00 | 0.00 | 0.00 | 81 | 1012.6 |
| 20260506010344 | 10 | 39 | 1.6 | 6.4 | 0.00 | 0.00 | 0.00 | 81 | 1012.3 |
| 20260506005841 | 10 | 86 | 6.4 | 14.5 | 0.00 | 0.00 | 0.00 | 80 | 1012.4 |
| 20260506005337 | 10 | 343 | 6.4 | 9.7 | 0.00 | 0.00 | 0.00 | 80 | 1012.2 |
| 20260506004833 | 10 | 109 | 0.0 | 3.2 | 0.00 | 0.00 | 0.00 | 80 | 1011.8 |
| 20260506004331 | 10 | 51 | 6.4 | 12.9 | 0.00 | 0.00 | 0.00 | 80 | 1011.8 |
| 20260506003827 | 10 | 109 | 3.2 | 4.8 | 0.00 | 0.00 | 0.00 | 80 | 1011.6 |
| 20260506003324 | 10 | 67 | 6.4 | 14.5 | 0.00 | 0.00 | 0.00 | 80 | 1011.4 |
| 20260506002820 | 10 | 28 | 3.2 | 14.5 | 0.00 | 0.00 | 0.00 | 79 | 1011.6 |
| 20260506002317 | 10 | 330 | 3.2 | 20.9 | 0.00 | 0.00 | 0.00 | 79 | 1011.4 |
| 20260506001812 | 10 | 94 | 4.8 | 16.1 | 0.00 | 0.00 | 0.00 | 79 | 1011.4 |
| 20260506001310 | 10 | 133 | 4.8 | 17.7 | 0.00 | 0.00 | 0.00 | 78 | 1011.1 |
| 20260506000806 | 10 | 94 | 6.4 | 11.3 | 0.00 | 0.00 | 0.00 | 78 | 1011.6 |
| 20260506000304 | 10 | 95 | 0.0 | 4.8 | 0.00 | 0.00 | 0.00 | 78 | 1011.1 |
| 20260505235801 | 10 | 46 | 4.8 | 12.9 | 0.00 | 0.00 | 0.00 | 78 | 1011.3 |
| 20260505235258 | 10 | 13 | 1.6 | 11.3 | 0.00 | 0.00 | 0.00 | 77 | 1011.1 |
| 20260505234755 | 11 | 54 | 8.0 | 12.9 | 0.00 | 0.00 | 0.00 | 76 | 1011.1 |
| 20260505234253 | 11 | 112 | 3.2 | 11.3 | 0.00 | 0.00 | 0.00 | 76 | 1011.0 |
| 20260505233749 | 11 | 54 | 1.6 | 4.8 | 0.00 | 0.00 | 0.00 | 75 | 1011.4 |
| 20260505233247 | 11 | 26 | 1.6 | 17.7 | 0.00 | 0.00 | 0.00 | 75 | 1011.7 |
| 20260505232744 | 11 | 37 | 3.2 | 12.9 | 0.00 | 0.00 | 0.00 | 75 | 1011.9 |
| 20260505232241 | 11 | 98 | 1.6 | 9.7 | 0.00 | 0.00 | 0.00 | 74 | 1011.7 |
| 20260505231738 | 11 | 56 | 1.6 | 11.3 | 0.00 | 0.00 | 0.00 | 74 | 1011.7 |
| 20260505231237 | 11 | 53 | 3.2 | 6.4 | 0.00 | 0.00 | 0.00 | 74 | 1011.6 |
| 20260505230735 | 11 | 104 | 1.6 | 9.7 | 0.00 | 0.00 | 0.00 | 74 | 1011.2 |
| 20260505230231 | 11 | 53 | 6.4 | 14.5 | 0.00 | 0.00 | 0.00 | 74 | 1011.0 |
| 20260505225728 | 11 | 72 | 4.8 | 11.3 | 0.00 | 0.00 | 0.00 | 73 | 1010.9 |
| 20260505225225 | 11 | 135 | 0.0 | 3.2 | 0.00 | 0.00 | 0.00 | 73 | 1010.9 |
| 20260505224720 | 11 | 68 | 4.8 | 9.7 | 0.00 | 0.00 | 0.00 | 73 | 1011.0 |
| 20260505224218 | 11 | 359 | 3.2 | 4.8 | 0.00 | 0.00 | 0.00 | 74 | 1010.9 |
| 20260505223716 | 11 | 51 | 6.4 | 14.5 | 0.00 | 0.00 | 0.00 | 73 | 1010.8 |
| 20260505223211 | 11 | 54 | 4.8 | 14.5 | 0.00 | 0.00 | 0.00 | 74 | 1011.1 |
| 20260505222708 | 11 | 50 | 3.2 | 6.4 | 0.00 | 0.00 | 0.00 | 74 | 1010.9 |
| 20260505222203 | 11 | 10 | 4.8 | 12.9 | 0.00 | 0.00 | 0.00 | 74 | 1010.8 |
| 20260505221701 | 11 | 101 | 3.2 | 11.3 | 0.00 | 0.00 | 0.00 | 74 | 1010.5 |
| 20260505221158 | 11 | 69 | 3.2 | 9.7 | 0.00 | 0.00 | 0.00 | 74 | 1010.5 |
| 20260505220655 | 11 | 57 | 1.6 | 12.9 | 0.00 | 0.00 | 0.00 | 74 | 1010.4 |
| 20260505220153 | 11 | 62 | 8.0 | 12.9 | 0.00 | 0.00 | 0.00 | 74 | 1010.7 |
| 20260505215650 | 12 | 75 | 4.8 | 9.7 | 0.00 | 0.00 | 0.00 | 73 | 1010.5 |
| 20260505215148 | 12 | 74 | 4.8 | 9.7 | 0.00 | 0.00 | 0.00 | 73 | 1010.5 |
| 20260505214646 | 12 | 61 | 6.4 | 11.3 | 0.00 | 0.00 | 0.00 | 72 | 1009.9 |
| 20260505214142 | 12 | 92 | 6.4 | 12.9 | 0.00 | 0.00 | 0.00 | 72 | 1009.8 |
| 20260505213640 | 12 | 45 | 3.2 | 9.7 | 0.00 | 0.00 | 0.00 | 72 | 1009.8 |
| 20260505213137 | 12 | 334 | 14.5 | 20.9 | 0.00 | 0.00 | 0.00 | 72 | 1009.8 |
| 20260505212632 | 12 | 66 | 4.8 | 27.4 | 0.00 | 0.00 | 0.00 | 72 | 1009.9 |
| 20260505212130 | 12 | 324 | 6.4 | 11.3 | 0.00 | 0.00 | 0.00 | 72 | 1010.0 |
| 20260505211627 | 12 | 50 | 4.8 | 12.9 | 0.00 | 0.00 | 0.00 | 72 | 1010.1 |
| 20260505211124 | 12 | 48 | 4.8 | 14.5 | 0.00 | 0.00 | 0.00 | 72 | 1009.4 |
| 20260505210621 | 12 | 47 | 3.2 | 12.9 | 0.00 | 0.00 | 0.00 | 72 | 1009.6 |
| 20260505210118 | 12 | 317 | 3.2 | 12.9 | 0.00 | 0.00 | 0.00 | 72 | 1009.3 |
| 20260505205615 | 12 | 121 | 6.4 | 17.7 | 0.00 | 0.00 | 0.00 | 73 | 1009.3 |
| 20260505205113 | 12 | 3 | 8.0 | 16.1 | 0.00 | 0.00 | 0.00 | 74 | 1010.0 |
| 20260505204610 | 12 | 19 | 4.8 | 9.7 | 0.00 | 0.00 | 0.00 | 74 | 1010.4 |
| 20260505204107 | 12 | 88 | 4.8 | 11.3 | 0.00 | 0.00 | 0.00 | 74 | 1010.8 |
| 20260505203604 | 12 | 86 | 1.6 | 14.5 | 0.00 | 0.00 | 0.00 | 74 | 1010.5 |
| 20260505203101 | 12 | 50 | 4.8 | 12.9 | 0.00 | 0.00 | 0.00 | 73 | 1010.0 |
| 20260505202556 | 12 | 13 | 6.4 | 12.9 | 0.00 | 0.00 | 0.00 | 73 | 1009.7 |
| 20260505202053 | 12 | 353 | 3.2 | 16.1 | 0.00 | 0.00 | 0.00 | 74 | 1010.0 |
| 20260505201550 | 12 | 354 | 3.2 | 6.4 | 0.00 | 0.00 | 0.00 | 73 | 1009.7 |
| 20260505201048 | 12 | 66 | 6.4 | 20.9 | 0.00 | 0.00 | 0.00 | 74 | 1009.5 |
| 20260505200545 | 12 | 20 | 3.2 | 17.7 | 0.00 | 0.00 | 0.00 | 74 | 1009.4 |
| 20260505200042 | 12 | 348 | 4.8 | 14.5 | 0.00 | 0.00 | 0.00 | 75 | 1009.8 |
| 20260505195538 | 12 | 68 | 3.2 | 14.5 | 0.00 | 0.00 | 0.00 | 76 | 1009.7 |
| 20260505195036 | 12 | 347 | 3.2 | 14.5 | 0.00 | 0.00 | 0.00 | 76 | 1009.5 |
| 20260505194533 | 12 | 24 | 3.2 | 11.3 | 0.00 | 0.00 | 0.00 | 77 | 1009.6 |
| 20260505194028 | 12 | 70 | 3.2 | 4.8 | 0.00 | 0.00 | 0.00 | 77 | 1009.6 |
| 20260505193525 | 12 | 347 | 4.8 | 20.9 | 0.00 | 0.00 | 0.00 | 78 | 1009.6 |
| 20260505193023 | 12 | 170 | 3.2 | 12.9 | 0.00 | 0.00 | 0.00 | 78 | 1009.6 |
| 20260505192521 | 12 | 80 | 6.4 | 20.9 | 0.00 | 0.00 | 0.00 | 79 | 1009.6 |
| 20260505192018 | 12 | 321 | 3.2 | 9.7 | 0.00 | 0.00 | 0.00 | 78 | 1009.5 |
| 20260505191516 | 12 | 343 | 6.4 | 14.5 | 0.00 | 0.00 | 0.00 | 79 | 1009.4 |
| 20260505191014 | 12 | 36 | 6.4 | 12.9 | 0.00 | 0.00 | 0.00 | 79 | 1009.3 |
| 20260505190508 | 12 | 52 | 6.4 | 9.7 | 0.00 | 0.00 | 0.00 | 80 | 1009.3 |
| 20260505190005 | 12 | 17 | 6.4 | 11.3 | 0.00 | 0.00 | 0.00 | 80 | 1009.5 |
| 20260505185502 | 13 | 26 | 6.4 | 11.3 | 0.00 | 0.00 | 0.00 | 79 | 1009.5 |
| 20260505184958 | 12 | 63 | 3.2 | 11.3 | 0.00 | 0.00 | 0.00 | 80 | 1009.3 |
| 20260505184455 | 12 | 129 | 4.8 | 9.7 | 0.00 | 0.00 | 0.00 | 80 | 1009.3 |
| 20260505183951 | 13 | 337 | 3.2 | 9.7 | 0.00 | 0.00 | 0.00 | 79 | 1009.2 |
| 20260505183449 | 13 | 100 | 6.4 | 20.9 | 0.00 | 0.00 | 0.00 | 79 | 1009.2 |
| 20260505182945 | 13 | 31 | 11.3 | 17.7 | 0.00 | 0.00 | 0.00 | 79 | 1009.3 |
| 20260505182442 | 13 | 138 | 4.8 | 12.9 | 0.00 | 0.00 | 0.00 | 78 | 1009.1 |
| 20260505181938 | 13 | 295 | 3.2 | 11.3 | 0.00 | 0.00 | 0.00 | 78 | 1009.1 |
| 20260505181436 | 13 | 296 | 4.8 | 12.9 | 0.00 | 0.00 | 0.00 | 78 | 1008.9 |
| 20260505180933 | 13 | 137 | 3.2 | 6.4 | 0.00 | 0.00 | 0.00 | 78 | 1008.6 |
| 20260505180429 | 13 | 352 | 8.0 | 12.9 | 0.00 | 0.00 | 0.00 | 78 | 1008.7 |
| 20260505175926 | 13 | 345 | 3.2 | 14.5 | 0.00 | 0.00 | 0.00 | 78 | 1008.9 |
| 20260505175422 | 13 | 66 | 3.2 | 9.7 | 0.00 | 0.00 | 0.00 | 78 | 1008.6 |
| 20260505174918 | 13 | 28 | 6.4 | 12.9 | 0.00 | 0.00 | 0.00 | 78 | 1008.1 |
| 20260505174416 | 13 | 88 | 4.8 | 16.1 | 0.00 | 0.00 | 0.00 | 79 | 1008.1 |
| 20260505173912 | 13 | 40 | 3.2 | 11.3 | 0.00 | 0.00 | 0.00 | 79 | 1008.2 |
| 20260505173408 | 13 | 352 | 3.2 | 17.7 | 0.00 | 0.00 | 0.00 | 80 | 1008.2 |
| 20260505172905 | 13 | 357 | 6.4 | 14.5 | 0.00 | 0.00 | 0.00 | 79 | 1008.0 |
| 20260505172403 | 13 | 82 | 3.2 | 16.1 | 0.00 | 0.00 | 0.00 | 80 | 1008.0 |
| 20260505171903 | 13 | 33 | 4.8 | 11.3 | 0.00 | 0.00 | 0.00 | 80 | 1008.1 |
| 20260505171400 | 13 | 311 | 4.8 | 14.5 | 0.00 | 0.00 | 0.00 | 80 | 1007.9 |
| 20260505170856 | 13 | 349 | 4.8 | 11.3 | 0.00 | 0.00 | 0.00 | 81 | 1007.5 |
| 20260505170354 | 13 | 26 | 6.4 | 12.9 | 0.00 | 0.00 | 0.00 | 81 | 1007.8 |
| 20260505165848 | 13 | 76 | 4.8 | 11.3 | 0.00 | 0.00 | 0.00 | 81 | 1007.8 |
| 20260505165344 | 13 | 93 | 3.2 | 11.3 | 0.00 | 0.00 | 0.00 | 81 | 1007.5 |
| 20260505164840 | 13 | 159 | 1.6 | 6.4 | 0.00 | 0.00 | 0.00 | 82 | 1007.5 |
| 20260505164337 | 13 | 33 | 1.6 | 16.1 | 0.00 | 0.00 | 0.00 | 82 | 1007.6 |
| 20260505163835 | 13 | 56 | 3.2 | 14.5 | 0.00 | 0.00 | 0.00 | 82 | 1007.2 |
| 20260505163334 | 13 | 49 | 3.2 | 4.8 | 0.00 | 0.00 | 0.00 | 82 | 1007.1 |
| 20260505162832 | 13 | 54 | 11.3 | 17.7 | 0.00 | 0.00 | 0.00 | 82 | 1006.9 |
| 20260505162328 | 13 | 68 | 9.7 | 20.9 | 0.00 | 0.00 | 0.00 | 83 | 1006.7 |
| 20260505161825 | 13 | 64 | 6.4 | 14.5 | 0.00 | 0.00 | 0.00 | 82 | 1006.5 |
| 20260505161322 | 14 | 58 | 6.4 | 9.7 | 0.00 | 0.00 | 0.00 | 82 | 1006.3 |
| 20260505160819 | 14 | 25 | 6.4 | 20.9 | 0.00 | 0.00 | 0.00 | 82 | 1006.3 |
| 20260505160317 | 15 | 349 | 6.4 | 14.5 | 0.00 | 0.00 | 0.00 | 82 | 1006.0 |
| 20260505153256 | 16 | 93 | 6.4 | 12.9 | 0.00 | 0.00 | 0.00 | 83 | 1005.4 |
| 20260505152753 | 16 | 208 | 3.2 | 16.1 | 0.00 | 0.00 | 0.00 | 83 | 1005.1 |
| 20260505152249 | 16 | 342 | 4.8 | 16.1 | 0.00 | 0.00 | 0.00 | 83 | 1004.7 |
| 20260505151744 | 16 | 97 | 3.2 | 6.4 | 0.00 | 0.00 | 0.00 | 83 | 1005.0 |
| 20260505151241 | 16 | 105 | 6.4 | 12.9 | 0.00 | 0.00 | 0.00 | 83 | 1004.5 |
| 20260505150738 | 17 | 97 | 9.7 | 17.7 | 0.00 | 0.00 | 0.00 | 82 | 1004.4 |
| 20260505150235 | 18 | 102 | 17.7 | 27.4 | 0.00 | 0.00 | 0.00 | 82 | 1004.2 |
| 20260505140200 | 20 | 64 | 4.8 | 11.3 | 0.00 | 0.00 | 0.00 | 84 | 1002.9 |
| 20260505130124 | 20 | 77 | 3.2 | 9.7 | 0.00 | 0.00 | 0.00 | 85 | 1002.6 |
| 20260505124613 | 20 | 59 | 4.8 | 6.4 | 0.00 | 0.00 | 0.00 | 83 | 1002.5 |
| 20260505124110 | 20 | 117 | 1.6 | 9.7 | 0.00 | 0.00 | 0.00 | 82 | 1002.4 |
| 20260505123606 | 20 | 102 | 0.0 | 4.8 | 0.00 | 0.00 | 0.00 | 81 | 1002.3 |
| 20260505123102 | 20 | 54 | 1.6 | 3.2 | 0.00 | 0.00 | 0.00 | 81 | 1002.3 |
| 20260505122559 | 20 | 129 | 0.0 | 0.0 | 0.00 | 0.00 | 0.00 | 82 | 1002.4 |
| 20260505122056 | 20 | 138 | 0.0 | 1.6 | 0.00 | 0.00 | 0.00 | 81 | 1002.3 |
| 20260505121552 | 20 | 147 | 0.0 | 0.0 | 0.00 | 0.00 | 0.00 | 81 | 1001.9 |
| 20260505121050 | 20 | 151 | 0.0 | 0.0 | 0.00 | 0.00 | 0.00 | 81 | 1001.9 |
| 20260505120546 | 20 | 165 | 0.0 | 0.0 | 0.00 | 0.00 | 0.00 | 80 | 1001.8 |
| 20260505120042 | 20 | 118 | 0.0 | 0.0 | 0.00 | 0.00 | 0.00 | 79 | 1002.0 |
| 20260505115536 | 21 | 188 | 0.0 | 0.0 | 0.00 | 0.00 | 0.00 | 78 | 1001.8 |
| 20260505115034 | 21 | 103 | 0.0 | 0.0 | 0.00 | 0.00 | 0.00 | 77 | 1001.8 |
| 20260505114525 | 21 | 100 | 0.0 | 1.6 | 0.00 | 0.00 | 0.00 | 76 | 1001.7 |
| 20260505114021 | 21 | 67 | 1.6 | 4.8 | 0.00 | 0.00 | 0.00 | 75 | 1001.3 |
| 20260505113518 | 21 | 130 | 0.0 | 1.6 | 0.00 | 0.00 | 0.00 | 77 | 1001.2 |
| 20260505113014 | 21 | 52 | 3.2 | 6.4 | 0.00 | 0.00 | 0.00 | 76 | 1001.2 |
| 20260505112510 | 21 | 47 | 1.6 | 1.6 | 0.00 | 0.00 | 0.00 | 76 | 1000.9 |
| 20260505112008 | 21 | 188 | 1.6 | 4.8 | 0.00 | 0.00 | 0.00 | 74 | 1000.6 |
| 20260505111502 | 21 | 162 | 1.6 | 3.2 | 0.00 | 0.00 | 0.00 | 74 | 1000.4 |
| 20260505110959 | 21 | 94 | 1.6 | 1.6 | 0.00 | 0.00 | 0.00 | 74 | 1000.5 |
| 20260505110455 | 22 | 173 | 1.6 | 6.4 | 0.00 | 0.00 | 0.00 | 73 | 1000.6 |
| 20260505101927 | 22 | 188 | 8.0 | 14.5 | 0.00 | 0.00 | 0.00 | 73 | 999.6 |
| 20260505101426 | 22 | 241 | 9.7 | 11.3 | 0.00 | 0.00 | 0.00 | 72 | 999.7 |
| 20260505100922 | 22 | 177 | 9.7 | 20.9 | 0.00 | 0.00 | 0.00 | 73 | 999.6 |
| 20260505100420 | 22 | 187 | 8.0 | 16.1 | 0.00 | 0.00 | 0.00 | 73 | 999.7 |
| 20260505095915 | 22 | 181 | 9.7 | 14.5 | 0.00 | 0.00 | 0.00 | 72 | 999.7 |
| 20260505095413 | 22 | 211 | 12.9 | 16.1 | 0.00 | 0.00 | 0.00 | 73 | 999.6 |
| 20260505094908 | 22 | 203 | 9.7 | 14.5 | 0.00 | 0.00 | 0.00 | 73 | 999.6 |
| 20260505094406 | 22 | 223 | 11.3 | 17.7 | 0.00 | 0.00 | 0.00 | 72 | 999.7 |
| 20260505093901 | 22 | 191 | 6.4 | 16.1 | 0.00 | 0.00 | 0.00 | 72 | 999.6 |
| 20260505093359 | 22 | 174 | 9.7 | 24.1 | 0.00 | 0.00 | 0.00 | 72 | 999.8 |
| 20260505092856 | 22 | 195 | 9.7 | 20.9 | 0.00 | 0.00 | 0.00 | 72 | 999.5 |
| 20260505092354 | 22 | 234 | 4.8 | 20.9 | 0.00 | 0.00 | 0.00 | 73 | 999.4 |
| 20260505091851 | 22 | 194 | 8.0 | 14.5 | 0.00 | 0.00 | 0.00 | 73 | 999.5 |
| 20260505091349 | 22 | 212 | 12.9 | 25.7 | 0.00 | 0.00 | 0.00 | 72 | 999.7 |
| 20260505090846 | 22 | 223 | 6.4 | 16.1 | 0.00 | 0.00 | 0.00 | 73 | 999.7 |
| 20260505090345 | 22 | 188 | 6.4 | 17.7 | 0.00 | 0.00 | 0.00 | 73 | 999.6 |
| 20260505085841 | 22 | 191 | 12.9 | 20.9 | 0.00 | 0.00 | 0.00 | 72 | 999.6 |
| 20260505085339 | 22 | 176 | 17.7 | 24.1 | 0.00 | 0.00 | 0.00 | 72 | 999.7 |
| 20260505084837 | 22 | 200 | 11.3 | 20.9 | 0.00 | 0.00 | 0.00 | 72 | 999.9 |
| 20260505084335 | 22 | 178 | 9.7 | 16.1 | 0.00 | 0.00 | 0.00 | 72 | 999.8 |
| 20260505083832 | 22 | 171 | 17.7 | 25.7 | 0.00 | 0.00 | 0.00 | 72 | 1000.0 |
| 20260505083330 | 22 | 185 | 9.7 | 17.7 | 0.00 | 0.00 | 0.00 | 72 | 1000.1 |
| 20260505082826 | 22 | 189 | 8.0 | 20.9 | 0.00 | 0.00 | 0.00 | 72 | 999.9 |
| 20260505082322 | 22 | 178 | 14.5 | 22.5 | 0.00 | 0.00 | 0.00 | 73 | 1000.1 |
| 20260505081819 | 22 | 181 | 6.4 | 17.7 | 0.00 | 0.00 | 0.00 | 73 | 1000.3 |
| 20260505081316 | 22 | 177 | 12.9 | 17.7 | 0.00 | 0.00 | 0.00 | 72 | 1000.0 |
| 20260505080812 | 22 | 168 | 12.9 | 17.7 | 0.00 | 0.00 | 0.00 | 73 | 1000.2 |
| 20260505080308 | 22 | 187 | 8.0 | 12.9 | 0.00 | 0.00 | 0.00 | 73 | 1000.5 |
| 20260505075804 | 22 | 171 | 4.8 | 9.7 | 0.00 | 0.00 | 0.00 | 73 | 1000.1 |
| 20260505075304 | 22 | 201 | 11.3 | 30.6 | 0.00 | 0.00 | 0.00 | 72 | 1000.3 |
| 20260505074758 | 22 | 237 | 8.0 | 16.1 | 0.00 | 0.00 | 0.00 | 73 | 1000.3 |
| 20260505074255 | 22 | 130 | 11.3 | 20.9 | 0.00 | 0.00 | 0.00 | 73 | 1000.4 |
| 20260505073753 | 22 | 209 | 11.3 | 17.7 | 0.00 | 0.00 | 0.00 | 73 | 1000.4 |
| 20260505073251 | 22 | 187 | 12.9 | 27.4 | 0.00 | 0.00 | 0.00 | 73 | 1000.5 |
| 20260505072747 | 22 | 198 | 12.9 | 29.0 | 0.00 | 0.00 | 0.00 | 73 | 1000.4 |
| 20260505072243 | 22 | 242 | 8.0 | 17.7 | 0.00 | 0.00 | 0.00 | 73 | 1000.6 |
| 20260505071739 | 22 | 198 | 4.8 | 24.1 | 0.00 | 0.00 | 0.00 | 72 | 1000.6 |
| 20260505071236 | 22 | 202 | 12.9 | 17.7 | 0.00 | 0.00 | 0.00 | 72 | 1000.8 |
| 20260505070734 | 22 | 241 | 8.0 | 22.5 | 0.00 | 0.00 | 0.00 | 72 | 1000.7 |
| 20260505070230 | 22 | 186 | 8.0 | 14.5 | 0.00 | 0.00 | 0.00 | 72 | 1001.0 |
| 20260505065726 | 22 | 180 | 14.5 | 20.9 | 0.00 | 0.00 | 0.00 | 72 | 1001.1 |
| 20260505065223 | 22 | 178 | 6.4 | 12.9 | 0.00 | 0.00 | 0.00 | 72 | 1001.2 |
| 20260505064720 | 22 | 145 | 9.7 | 17.7 | 0.00 | 0.00 | 0.00 | 72 | 1001.2 |
| 20260505064218 | 23 | 159 | 8.0 | 17.7 | 0.00 | 0.00 | 0.00 | 71 | 1001.1 |
| 20260505063715 | 23 | 181 | 8.0 | 20.9 | 0.00 | 0.00 | 0.00 | 71 | 1001.2 |
| 20260505063211 | 23 | 287 | 8.0 | 22.5 | 0.00 | 0.00 | 0.00 | 71 | 1001.2 |
| 20260505062707 | 22 | 191 | 8.0 | 22.5 | 0.00 | 0.00 | 0.00 | 71 | 1001.1 |
| 20260505062205 | 22 | 212 | 14.5 | 20.9 | 0.00 | 0.00 | 0.00 | 72 | 1001.3 |
| 20260505061702 | 23 | 230 | 4.8 | 20.9 | 0.00 | 0.00 | 0.00 | 71 | 1001.5 |
| 20260505061200 | 23 | 199 | 6.4 | 14.5 | 0.00 | 0.00 | 0.00 | 71 | 1001.4 |
| 20260505060657 | 22 | 288 | 4.8 | 17.7 | 0.00 | 0.00 | 0.00 | 71 | 1001.4 |
| 20260505060154 | 22 | 224 | 14.5 | 24.1 | 0.00 | 0.00 | 0.00 | 71 | 1001.4 |
| 20260505055649 | 23 | 216 | 14.5 | 24.1 | 0.00 | 0.00 | 0.00 | 71 | 1001.4 |
| 20260505055146 | 22 | 199 | 11.3 | 20.9 | 0.00 | 0.00 | 0.00 | 71 | 1001.6 |
| 20260505054643 | 22 | 187 | 12.9 | 17.7 | 0.00 | 0.00 | 0.00 | 71 | 1001.8 |
| 20260505054141 | 22 | 190 | 4.8 | 22.5 | 0.00 | 0.00 | 0.00 | 71 | 1001.8 |
| 20260505053639 | 23 | 212 | 8.0 | 16.1 | 0.00 | 0.00 | 0.00 | 71 | 1001.7 |
| 20260505053135 | 23 | 191 | 9.7 | 16.1 | 0.00 | 0.00 | 0.00 | 71 | 1001.8 |
| 20260505052632 | 23 | 214 | 3.2 | 16.1 | 0.00 | 0.00 | 0.00 | 70 | 1001.9 |
| 20260505052129 | 23 | 211 | 19.3 | 27.4 | 0.00 | 0.00 | 0.00 | 70 | 1001.7 |
| 20260505051626 | 23 | 229 | 11.3 | 16.1 | 0.00 | 0.00 | 0.00 | 70 | 1001.8 |
| 20260505051124 | 23 | 14 | 1.6 | 20.9 | 0.00 | 0.00 | 0.00 | 70 | 1001.8 |
| 20260505050621 | 23 | 152 | 9.7 | 14.5 | 0.00 | 0.00 | 0.00 | 70 | 1001.9 |
| 20260505050120 | 23 | 174 | 11.3 | 22.5 | 0.00 | 0.00 | 0.00 | 70 | 1001.9 |
| 20260505041549 | 23 | 190 | 11.3 | 20.9 | 0.00 | 0.00 | 0.00 | 69 | 1002.3 |
| 20260505041047 | 23 | 189 | 19.3 | 27.4 | 0.00 | 0.00 | 0.00 | 68 | 1002.5 |
| 20260505040544 | 23 | 204 | 6.4 | 29.0 | 0.00 | 0.00 | 0.00 | 68 | 1002.7 |
| 20260505040041 | 23 | 190 | 6.4 | 12.9 | 0.00 | 0.00 | 0.00 | 68 | 1002.7 |
| 20260505035537 | 23 | 178 | 17.7 | 27.4 | 0.00 | 0.00 | 0.00 | 68 | 1002.6 |
| 20260505035034 | 23 | 203 | 6.4 | 29.0 | 0.00 | 0.00 | 0.00 | 67 | 1002.5 |
| 20260505034530 | 23 | 187 | 3.2 | 24.1 | 0.00 | 0.00 | 0.00 | 68 | 1002.4 |
| 20260505034027 | 23 | 211 | 6.4 | 24.1 | 0.00 | 0.00 | 0.00 | 67 | 1002.4 |
| 20260505033524 | 23 | 185 | 8.0 | 27.4 | 0.00 | 0.00 | 0.00 | 67 | 1002.5 |
| 20260505033022 | 24 | 136 | 14.5 | 20.9 | 0.00 | 0.00 | 0.00 | 67 | 1002.3 |
| 20260505032520 | 24 | 175 | 14.5 | 24.1 | 0.00 | 0.00 | 0.00 | 66 | 1002.3 |
| 20260505032016 | 24 | 195 | 9.7 | 24.1 | 0.00 | 0.00 | 0.00 | 66 | 1002.3 |
| 20260505031514 | 24 | 174 | 3.2 | 24.1 | 0.00 | 0.00 | 0.00 | 66 | 1002.1 |
| 20260505031010 | 24 | 188 | 4.8 | 16.1 | 0.00 | 0.00 | 0.00 | 66 | 1002.0 |
| 20260505030507 | 24 | 208 | 6.4 | 12.9 | 0.00 | 0.00 | 0.00 | 66 | 1002.1 |
| 20260505030002 | 24 | 154 | 4.8 | 11.3 | 0.00 | 0.00 | 0.00 | 65 | 1002.3 |
| 20260505025459 | 25 | 216 | 14.5 | 24.1 | 0.00 | 0.00 | 0.00 | 65 | 1002.0 |
| 20260505024958 | 24 | 221 | 4.8 | 22.5 | 0.00 | 0.00 | 0.00 | 65 | 1001.8 |
| 20260505024454 | 25 | 187 | 8.0 | 17.7 | 0.00 | 0.00 | 0.00 | 65 | 1001.7 |
| 20260505023951 | 25 | 178 | 14.5 | 24.1 | 0.00 | 0.00 | 0.00 | 64 | 1001.9 |
| 20260505023448 | 25 | 191 | 17.7 | 24.1 | 0.00 | 0.00 | 0.00 | 64 | 1001.9 |
| 20260505022946 | 25 | 184 | 8.0 | 27.4 | 0.00 | 0.00 | 0.00 | 64 | 1001.9 |
| 20260505022443 | 25 | 201 | 6.4 | 24.1 | 0.00 | 0.00 | 0.00 | 64 | 1001.6 |
| 20260505021941 | 25 | 132 | 4.8 | 27.4 | 0.00 | 0.00 | 0.00 | 63 | 1001.7 |
| 20260505021437 | 25 | 182 | 11.3 | 14.5 | 0.00 | 0.00 | 0.00 | 63 | 1001.6 |
| 20260505020932 | 25 | 258 | 16.1 | 22.5 | 0.00 | 0.00 | 0.00 | 63 | 1001.6 |
| 20260505020428 | 25 | 185 | 14.5 | 17.7 | 0.00 | 0.00 | 0.00 | 63 | 1001.6 |